Regional Weather Roundup
Issued by NWS Raleigh/Durham, NC

Home | Current Version | Previous Version | Text Only | Print | Product List | Glossary On
Versions: 1 2 3 4 5 6 7 8 9 10 11 12 13 14 15 16 17 18 19 20 21 22 23 24 25 26 27 28 29 30 31 32 33 34 35 36 37 38 39 40 41 42 43 44 45 46 47 48 49 50
000
ASUS42 KRAH 061710
RWRRAH
NORTH CAROLINA WEATHER ROUNDUP
NATIONAL WEATHER SERVICE RALEIGH NC
100 PM EDT WED MAY 06 2015

NOTE: "FAIR" INDICATES FEW OR NO CLOUDS BELOW 12,000 FEET WITH NO
SIGNIFICANT WEATHER AND/OR OBSTRUCTIONS TO VISIBILITY.

NCZ001-053-055-056-065-067-061800-
WESTERN NORTH CAROLINA

CITY           SKY/WX    TMP DP  RH WIND       PRES   REMARKS
ASHEVILLE      SUNNY     77  41  27 E8G17     30.25F
JEFFERSON      SUNNY     71  48  43 SE5       30.29S
MORGANTON      SUNNY     82  48  30 SE3       30.26F
HICKORY        SUNNY     82  52  35 VRB7      30.21F
RUTHERFORDTON  SUNNY     79  55  42 E5        30.22F
MOUNT AIRY     SUNNY     82  54  38 CALM      30.22F
BOONE          MOSUNNY   74  47  38 S3G16     30.29F
$$

NCZ021-022-025-041-071-084-088-061800-
CENTRAL NORTH CAROLINA

CITY           SKY/WX    TMP DP  RH WIND       PRES   REMARKS
CHARLOTTE      MOSUNNY   81  54  39 NE8       30.20F
GREENSBORO     PTSUNNY   80  56  43 CALM      30.21F
WINSTON-SALEM  SUNNY     79  55  43 MISG      30.22F
RALEIGH-DURHAM PTSUNNY   79  57  46 E6        30.22F
FORT BRAGG     MOSUNNY   78  57  49 NE7       30.19F
FAYETTEVILLE   MOSUNNY   79  50  36 E8        30.19F
BURLINGTON     MOSUNNY   80  58  46 CALM      30.21F
LAURINBURG     PTSUNNY   78  53  41 E9        30.20F
$$

NCZ011-015-027-028-043-044-047-080-103-061800-
NORTHEASTERN NORTH CAROLINA

CITY           SKY/WX    TMP DP  RH WIND       PRES   REMARKS
ROCKY MT-WILSO PTSUNNY   78  54  43 SE3       30.21F
GREENVILLE     PTSUNNY   77  52  41 SE9       30.22F
WASHINGTON     CLOUDY    74  53  48 SE5       30.22F
ELIZABETH CITY PTSUNNY   74  57  55 E7        30.23F
MANTEO         CLOUDY    71  58  64 SW7       30.24F
CAPE HATTERAS  CLOUDY    73  56  54 SE7       30.23F
$$

NCZ078-087-090-091-093-098-101-061800-
SOUTHEASTERN NORTH CAROLINA

CITY           SKY/WX    TMP DP  RH WIND       PRES   REMARKS
LUMBERTON      PTSUNNY   79  50  36 VRB6      30.18F
GOLDSBORO      MOSUNNY   76  54  46 E9        30.19F
KINSTON        MOSUNNY   75  54  46 SE3       30.22F
KENANSVILLE    CLOUDY    75  49  39 E3        30.21F
NEW BERN       CLOUDY    75  54  47 E8        30.22F
CHERRY POINT   CLOUDY    73  57  57 NE13      30.22F
BEAUFORT       CLOUDY    73  58  59 E9        30.21F
JACKSONVILLE   CLOUDY    75  50  41 E8        30.20F
WILMINGTON     CLOUDY    75  56  51 E12       30.19F
$$




USA.gov is the U.S. government's official web portal to all federal, state and local government web resources and services.